| time (UTC) | temp F | wind direction | speed MPH | gust MPH | rain 1hr in | rain 24hr in | rain mn in | humidity % | barometer mb |
| 20260508034738 | 55 | 304 | 1.0 | 8.0 | 0.00 | 0.03 | 0.03 | 80 | 1008.4 |
| 20260508034236 | 55 | 200 | 1.0 | 8.0 | 0.00 | 0.03 | 0.03 | 80 | 1008.3 |
| 20260508033735 | 55 | 307 | 2.0 | 6.0 | 0.00 | 0.03 | 0.03 | 79 | 1008.4 |
| 20260508033237 | 55 | 211 | 1.0 | 6.0 | 0.00 | 0.03 | 0.03 | 79 | 1008.4 |
| 20260508032729 | 55 | 210 | 1.0 | 4.0 | 0.00 | 0.03 | 0.03 | 79 | 1008.4 |
| 20260508032231 | 55 | 218 | 2.0 | 6.0 | 0.00 | 0.03 | 0.03 | 78 | 1008.3 |
| 20260508031728 | 56 | 212 | 2.0 | 6.0 | 0.00 | 0.03 | 0.03 | 78 | 1008.3 |
| 20260508030729 | 56 | 278 | 2.0 | 7.0 | 0.00 | 0.03 | 0.03 | 77 | 1008.3 |
| 20260508030226 | 56 | 250 | 1.0 | 6.0 | 0.00 | 0.03 | 0.03 | 77 | 1008.3 |
| 20260508025222 | 56 | 193 | 2.0 | 8.0 | 0.00 | 0.03 | 0.03 | 77 | 1008.2 |
| 20260508024721 | 56 | 264 | 1.0 | 5.0 | 0.00 | 0.03 | 0.03 | 77 | 1008.2 |
| 20260508024222 | 56 | 183 | 1.0 | 5.0 | 0.00 | 0.03 | 0.03 | 77 | 1008.3 |
| 20260508023720 | 56 | 188 | 1.0 | 5.0 | 0.00 | 0.03 | 0.03 | 78 | 1008.2 |
| 20260508023220 | 56 | 214 | 1.0 | 5.0 | 0.00 | 0.03 | 0.03 | 78 | 1008.1 |
| 20260508022715 | 56 | 179 | 1.0 | 4.0 | 0.00 | 0.03 | 0.03 | 78 | 1008.1 |
| 20260508022215 | 56 | 260 | 2.0 | 8.0 | 0.00 | 0.03 | 0.03 | 77 | 1008.2 |
| 20260508021716 | 56 | 185 | 2.0 | 8.0 | 0.00 | 0.03 | 0.03 | 77 | 1008.1 |
| 20260508021214 | 56 | 188 | 1.0 | 4.0 | 0.00 | 0.03 | 0.03 | 77 | 1008.2 |
| 20260508020216 | 56 | 214 | 3.0 | 10.0 | 0.00 | 0.03 | 0.03 | 76 | 1008.1 |
| 20260508015708 | 56 | 222 | 3.0 | 10.0 | 0.00 | 0.03 | 0.03 | 76 | 1008.0 |
| 20260508015207 | 56 | 215 | 2.0 | 8.0 | 0.00 | 0.03 | 0.03 | 75 | 1008.1 |
| 20260508014708 | 56 | 195 | 2.0 | 7.0 | 0.00 | 0.03 | 0.03 | 74 | 1008.0 |
| 20260508014210 | 56 | 278 | 2.0 | 8.0 | 0.00 | 0.03 | 0.03 | 74 | 1007.9 |
| 20260508012705 | 56 | 179 | 3.0 | 8.0 | 0.00 | 0.03 | 0.03 | 73 | 1007.8 |
| 20260508012205 | 56 | 145 | 3.0 | 11.0 | 0.00 | 0.03 | 0.03 | 73 | 1007.9 |
| 20260508011205 | 56 | 211 | 3.0 | 6.0 | 0.00 | 0.03 | 0.03 | 74 | 1007.8 |
| 20260508010705 | 56 | 221 | 2.0 | 6.0 | 0.00 | 0.03 | 0.03 | 73 | 1007.6 |
| 20260508010205 | 56 | 231 | 2.0 | 6.0 | 0.00 | 0.03 | 0.03 | 73 | 1007.6 |
| 20260508005706 | 56 | 200 | 2.0 | 10.0 | 0.00 | 0.03 | 0.03 | 72 | 1007.5 |
| 20260508005200 | 56 | 213 | 3.0 | 10.0 | 0.00 | 0.03 | 0.03 | 71 | 1007.5 |
| 20260508004657 | 56 | 242 | 4.0 | 10.0 | 0.00 | 0.03 | 0.03 | 70 | 1007.5 |
| 20260508003658 | 57 | 228 | 3.0 | 9.0 | 0.00 | 0.03 | 0.03 | 70 | 1007.3 |
| 20260508003156 | 57 | 231 | 4.0 | 9.0 | 0.00 | 0.03 | 0.03 | 69 | 1007.2 |
| 20260508002656 | 57 | 159 | 4.0 | 11.0 | 0.00 | 0.03 | 0.03 | 69 | 1007.2 |
| 20260508001650 | 57 | 203 | 5.0 | 11.0 | 0.00 | 0.03 | 0.03 | 69 | 1007.0 |
| 20260508001149 | 57 | 200 | 6.0 | 13.0 | 0.00 | 0.03 | 0.03 | 68 | 1007.0 |
| 20260508000651 | 58 | 184 | 5.0 | 13.0 | 0.00 | 0.03 | 0.03 | 68 | 1006.9 |
| 20260508000151 | 58 | 207 | 5.0 | 10.0 | 0.00 | 0.03 | 0.03 | 67 | 1006.8 |
| 20260507235651 | 58 | 229 | 4.0 | 11.0 | 0.00 | 0.03 | 0.03 | 67 | 1006.8 |
| 20260507235144 | 58 | 170 | 4.0 | 12.0 | 0.00 | 0.03 | 0.03 | 66 | 1006.8 |
| 20260507234644 | 58 | 280 | 4.0 | 12.0 | 0.00 | 0.03 | 0.03 | 65 | 1006.7 |
| 20260507234144 | 59 | 194 | 4.0 | 11.0 | 0.00 | 0.03 | 0.03 | 63 | 1006.6 |
| 20260507233144 | 60 | 204 | 4.0 | 11.0 | 0.00 | 0.03 | 0.03 | 61 | 1006.5 |
| 20260507232644 | 60 | 188 | 5.0 | 12.0 | 0.00 | 0.03 | 0.03 | 61 | 1006.4 |
| 20260507232137 | 60 | 200 | 5.0 | 13.0 | 0.00 | 0.03 | 0.03 | 60 | 1006.3 |
| 20260507231140 | 61 | 159 | 4.0 | 12.0 | 0.00 | 0.03 | 0.03 | 58 | 1006.2 |
| 20260507230640 | 61 | 181 | 5.0 | 13.0 | 0.00 | 0.03 | 0.03 | 58 | 1006.3 |
| 20260507230138 | 61 | 233 | 4.0 | 13.0 | 0.00 | 0.03 | 0.03 | 57 | 1006.2 |
| 20260507225639 | 61 | 198 | 5.0 | 10.0 | 0.00 | 0.03 | 0.03 | 57 | 1006.1 |
| 20260507225136 | 61 | 191 | 6.0 | 13.0 | 0.00 | 0.03 | 0.03 | 57 | 1006.0 |
| 20260507224634 | 61 | 221 | 6.0 | 13.0 | 0.00 | 0.03 | 0.03 | 56 | 1005.9 |
| 20260507224134 | 62 | 197 | 5.0 | 13.0 | 0.00 | 0.03 | 0.03 | 56 | 1005.9 |
| 20260507223634 | 62 | 163 | 5.0 | 13.0 | 0.00 | 0.03 | 0.03 | 54 | 1005.9 |
| 20260507223132 | 62 | 207 | 5.0 | 10.0 | 0.00 | 0.03 | 0.03 | 54 | 1005.8 |
| 20260507222129 | 62 | 174 | 4.0 | 10.0 | 0.00 | 0.03 | 0.03 | 53 | 1005.7 |
| 20260507221629 | 63 | 240 | 4.0 | 10.0 | 0.00 | 0.03 | 0.03 | 53 | 1005.8 |
| 20260507221129 | 63 | 198 | 4.0 | 10.0 | 0.00 | 0.03 | 0.03 | 53 | 1005.7 |
| 20260507220629 | 63 | 201 | 3.0 | 7.0 | 0.00 | 0.03 | 0.03 | 52 | 1005.7 |
| 20260507220131 | 63 | 205 | 3.0 | 10.0 | 0.00 | 0.03 | 0.03 | 50 | 1005.7 |
| 20260507215630 | 63 | 253 | 4.0 | 10.0 | 0.00 | 0.03 | 0.03 | 51 | 1005.8 |
| 20260507215131 | 63 | 194 | 3.0 | 8.0 | 0.00 | 0.03 | 0.03 | 51 | 1005.6 |
| 20260507214626 | 63 | 195 | 3.0 | 10.0 | 0.00 | 0.03 | 0.03 | 52 | 1005.7 |
| 20260507214127 | 63 | 161 | 4.0 | 10.0 | 0.00 | 0.03 | 0.03 | 51 | 1005.8 |
| 20260507213626 | 63 | 214 | 4.0 | 10.0 | 0.00 | 0.03 | 0.03 | 50 | 1005.8 |
| 20260507213124 | 63 | 215 | 4.0 | 8.0 | 0.00 | 0.03 | 0.03 | 51 | 1005.8 |
| 20260507212624 | 64 | 221 | 4.0 | 10.0 | 0.00 | 0.03 | 0.03 | 51 | 1005.8 |
| 20260507212124 | 64 | 245 | 4.0 | 10.0 | 0.00 | 0.03 | 0.03 | 51 | 1005.8 |
| 20260507211621 | 64 | 221 | 3.0 | 9.0 | 0.00 | 0.03 | 0.03 | 50 | 1005.8 |
| 20260507211123 | 64 | 218 | 3.0 | 10.0 | 0.00 | 0.03 | 0.03 | 51 | 1005.8 |
| 20260507210620 | 64 | 210 | 3.0 | 10.0 | 0.00 | 0.03 | 0.03 | 51 | 1005.8 |
| 20260507210121 | 64 | 250 | 4.0 | 10.0 | 0.00 | 0.03 | 0.03 | 51 | 1005.8 |
| 20260507205618 | 64 | 145 | 4.0 | 10.0 | 0.00 | 0.03 | 0.03 | 51 | 1005.7 |
| 20260507205120 | 64 | 184 | 4.0 | 13.0 | 0.00 | 0.03 | 0.03 | 50 | 1005.8 |
| 20260507204613 | 64 | 215 | 4.0 | 13.0 | 0.00 | 0.03 | 0.03 | 51 | 1005.8 |
| 20260507204112 | 64 | 228 | 4.0 | 11.0 | 0.00 | 0.03 | 0.03 | 51 | 1005.9 |
| 20260507203611 | 64 | 210 | 4.0 | 11.0 | 0.00 | 0.03 | 0.03 | 50 | 1005.7 |
| 20260507203112 | 64 | 283 | 4.0 | 13.0 | 0.00 | 0.03 | 0.03 | 50 | 1005.7 |
| 20260507202613 | 64 | 188 | 5.0 | 13.0 | 0.00 | 0.03 | 0.03 | 51 | 1005.7 |
| 20260507202111 | 65 | 217 | 5.0 | 12.0 | 0.00 | 0.03 | 0.03 | 50 | 1005.8 |
| 20260507201104 | 65 | 197 | 4.0 | 10.0 | 0.00 | 0.03 | 0.03 | 48 | 1005.7 |
| 20260507200608 | 66 | 187 | 4.0 | 10.0 | 0.00 | 0.03 | 0.03 | 48 | 1005.7 |
| 20260507200107 | 66 | 224 | 2.0 | 10.0 | 0.00 | 0.03 | 0.03 | 48 | 1005.6 |
| 20260507195607 | 66 | 190 | 2.0 | 8.0 | 0.00 | 0.03 | 0.03 | 46 | 1005.7 |
| 20260507195106 | 66 | 324 | 2.0 | 8.0 | 0.00 | 0.03 | 0.03 | 46 | 1005.6 |
| 20260507194559 | 65 | 217 | 2.0 | 8.0 | 0.00 | 0.03 | 0.03 | 47 | 1005.7 |
| 20260507194059 | 65 | 83 | 3.0 | 8.0 | 0.00 | 0.03 | 0.03 | 47 | 1005.7 |
| 20260507192600 | 65 | 158 | 3.0 | 8.0 | 0.00 | 0.03 | 0.03 | 48 | 1006.2 |
| 20260507191057 | 64 | 111 | 2.0 | 7.0 | 0.00 | 0.03 | 0.03 | 50 | 1006.3 |
| 20260507190557 | 64 | 181 | 1.0 | 7.0 | 0.00 | 0.03 | 0.03 | 48 | 1006.6 |
| 20260507190057 | 64 | 210 | 2.0 | 6.0 | 0.00 | 0.03 | 0.03 | 47 | 1006.8 |
| 20260507185058 | 64 | 165 | 3.0 | 7.0 | 0.00 | 0.03 | 0.03 | 47 | 1006.4 |
| 20260507184053 | 64 | 211 | 2.0 | 7.0 | 0.00 | 0.03 | 0.03 | 47 | 1006.6 |
| 20260507183555 | 63 | 260 | 2.0 | 8.0 | 0.00 | 0.03 | 0.03 | 47 | 1006.8 |
| 20260507183054 | 63 | 296 | 2.0 | 8.0 | 0.00 | 0.03 | 0.03 | 47 | 1006.9 |
| 20260507182554 | 63 | 253 | 1.0 | 5.0 | 0.00 | 0.03 | 0.03 | 46 | 1007.1 |
| 20260507182053 | 62 | 192 | 2.0 | 6.0 | 0.00 | 0.03 | 0.03 | 46 | 1006.9 |
| 20260507181552 | 63 | 93 | 1.0 | 6.0 | 0.00 | 0.03 | 0.03 | 44 | 1007.0 |
| 20260507181048 | 63 | 211 | 0.0 | 5.0 | 0.00 | 0.03 | 0.03 | 45 | 1007.3 |
| 20260507180546 | 62 | 64 | 1.0 | 3.0 | 0.00 | 0.03 | 0.03 | 47 | 1007.2 |
| 20260507180046 | 62 | 32 | 1.0 | 4.0 | 0.00 | 0.03 | 0.03 | 46 | 1007.3 |
| 20260507175546 | 62 | 266 | 1.0 | 4.0 | 0.00 | 0.03 | 0.03 | 46 | 1007.2 |
| 20260507175045 | 62 | 23 | 1.0 | 6.0 | 0.00 | 0.03 | 0.03 | 47 | 1007.2 |
| 20260507174548 | 61 | 319 | 1.0 | 6.0 | 0.00 | 0.03 | 0.03 | 46 | 1007.3 |
| 20260507174042 | 61 | 13 | 1.0 | 4.0 | 0.00 | 0.03 | 0.03 | 48 | 1007.3 |
| 20260507173040 | 60 | 101 | 1.0 | 3.0 | 0.00 | 0.03 | 0.03 | 49 | 1008.0 |
| 20260507172540 | 60 | 98 | 1.0 | 4.0 | 0.00 | 0.03 | 0.03 | 48 | 1007.9 |
| 20260507172040 | 60 | 89 | 0.0 | 4.0 | 0.00 | 0.03 | 0.03 | 48 | 1008.1 |
| 20260507171540 | 60 | 200 | 0.0 | 2.0 | 0.00 | 0.03 | 0.03 | 51 | 1007.9 |
| 20260507171039 | 60 | 94 | 0.0 | 2.0 | 0.00 | 0.03 | 0.03 | 50 | 1008.1 |
| 20260507170036 | 60 | 93 | 1.0 | 5.0 | 0.00 | 0.03 | 0.03 | 49 | 1008.6 |
| 20260507165537 | 60 | 51 | 2.0 | 4.0 | 0.00 | 0.03 | 0.03 | 50 | 1008.2 |
| 20260507165034 | 60 | 69 | 3.0 | 6.0 | 0.00 | 0.03 | 0.03 | 50 | 1008.2 |
| 20260507164534 | 60 | 36 | 2.0 | 6.0 | 0.00 | 0.03 | 0.03 | 51 | 1008.3 |
| 20260507164029 | 60 | 97 | 1.0 | 5.0 | 0.00 | 0.03 | 0.03 | 52 | 1008.4 |
| 20260507163527 | 60 | 348 | 2.0 | 7.0 | 0.00 | 0.03 | 0.03 | 50 | 1008.5 |
| 20260507163024 | 61 | 63 | 2.0 | 7.0 | 0.00 | 0.03 | 0.03 | 51 | 1008.6 |
| 20260507162522 | 60 | 25 | 1.0 | 5.0 | 0.00 | 0.03 | 0.03 | 51 | 1008.6 |
| 20260507162022 | 60 | 63 | 1.0 | 5.0 | 0.00 | 0.03 | 0.03 | 53 | 1008.8 |
| 20260507161516 | 59 | 163 | 2.0 | 6.0 | 0.00 | 0.03 | 0.03 | 55 | 1008.7 |
| 20260507160515 | 59 | 111 | 2.0 | 8.0 | 0.00 | 0.03 | 0.03 | 53 | 1008.8 |
| 20260507160016 | 60 | 55 | 1.0 | 4.0 | 0.00 | 0.03 | 0.03 | 55 | 1008.9 |
| 20260507155516 | 59 | 201 | 1.0 | 3.0 | 0.00 | 0.03 | 0.03 | 53 | 1009.0 |
| 20260507154010 | 58 | 24 | 1.0 | 4.0 | 0.00 | 0.03 | 0.03 | 55 | 1009.2 |
| 20260507153512 | 58 | 96 | 1.0 | 5.0 | 0.00 | 0.03 | 0.03 | 55 | 1009.2 |
| 20260507153013 | 58 | 346 | 2.0 | 6.0 | 0.00 | 0.03 | 0.03 | 54 | 1009.2 |
| 20260507152010 | 57 | 60 | 2.0 | 5.0 | 0.00 | 0.04 | 0.03 | 54 | 1009.1 |
| 20260507151508 | 57 | 68 | 2.0 | 8.0 | 0.00 | 0.05 | 0.03 | 53 | 1009.1 |
| 20260507151006 | 57 | 26 | 4.0 | 8.0 | 0.00 | 0.06 | 0.03 | 52 | 1009.3 |
| 20260507150506 | 57 | 46 | 3.0 | 9.0 | 0.00 | 0.06 | 0.03 | 53 | 1009.3 |
| 20260507150006 | 57 | 82 | 2.0 | 9.0 | 0.00 | 0.06 | 0.03 | 54 | 1009.4 |
| 20260507145504 | 57 | 85 | 1.0 | 6.0 | 0.00 | 0.07 | 0.03 | 56 | 1009.5 |
| 20260507144457 | 57 | 32 | 2.0 | 6.0 | 0.00 | 0.08 | 0.03 | 58 | 1009.6 |
| 20260507143957 | 56 | 22 | 1.0 | 6.0 | 0.00 | 0.08 | 0.03 | 58 | 1009.6 |
| 20260507143457 | 57 | 86 | 1.0 | 4.0 | 0.00 | 0.08 | 0.03 | 59 | 1009.7 |
| 20260507142959 | 57 | 110 | 1.0 | 4.0 | 0.00 | 0.09 | 0.03 | 61 | 1009.8 |
| 20260507142459 | 56 | 74 | 2.0 | 5.0 | 0.00 | 0.09 | 0.03 | 63 | 1009.7 |
| 20260507141959 | 56 | 82 | 2.0 | 5.0 | 0.00 | 0.10 | 0.03 | 63 | 1009.7 |
| 20260507141453 | 56 | 117 | 1.0 | 5.0 | 0.00 | 0.11 | 0.03 | 62 | 1009.8 |
| 20260507140454 | 56 | 60 | 2.0 | 5.0 | 0.00 | 0.14 | 0.03 | 63 | 1009.7 |
| 20260507135954 | 56 | 23 | 1.0 | 5.0 | 0.00 | 0.15 | 0.03 | 62 | 1009.8 |
| 20260507135452 | 56 | 80 | 1.0 | 3.0 | 0.00 | 0.15 | 0.03 | 62 | 1009.8 |
| 20260507134952 | 56 | 95 | 1.0 | 4.0 | 0.00 | 0.17 | 0.03 | 61 | 1010.0 |
| 20260507134445 | 56 | 103 | 2.0 | 5.0 | 0.00 | 0.18 | 0.03 | 62 | 1009.9 |
| 20260507133945 | 56 | 77 | 2.0 | 5.0 | 0.00 | 0.19 | 0.03 | 60 | 1010.0 |
| 20260507133448 | 56 | 57 | 2.0 | 5.0 | 0.00 | 0.20 | 0.03 | 60 | 1010.1 |
| 20260507132947 | 56 | 72 | 2.0 | 5.0 | 0.00 | 0.21 | 0.03 | 59 | 1010.1 |
| 20260507132446 | 56 | 68 | 2.0 | 9.0 | 0.00 | 0.22 | 0.03 | 59 | 1009.9 |
| 20260507130944 | 56 | 41 | 2.0 | 7.0 | 0.00 | 0.22 | 0.03 | 59 | 1009.9 |
| 20260507125944 | 56 | 23 | 4.0 | 11.0 | 0.00 | 0.23 | 0.03 | 58 | 1009.6 |
| 20260507125443 | 56 | 9 | 3.0 | 10.0 | 0.00 | 0.23 | 0.03 | 58 | 1009.6 |
| 20260507124943 | 56 | 56 | 4.0 | 9.0 | 0.00 | 0.23 | 0.03 | 58 | 1009.8 |
| 20260507124446 | 56 | 24 | 3.0 | 8.0 | 0.00 | 0.23 | 0.03 | 58 | 1009.8 |
| 20260507123938 | 56 | 71 | 3.0 | 7.0 | 0.00 | 0.23 | 0.03 | 58 | 1009.9 |
| 20260507123437 | 56 | 4 | 3.0 | 8.0 | 0.00 | 0.23 | 0.03 | 59 | 1010.1 |
| 20260507122434 | 56 | 17 | 2.0 | 10.0 | 0.00 | 0.23 | 0.03 | 60 | 1009.8 |
| 20260507121935 | 57 | 24 | 2.0 | 7.0 | 0.00 | 0.23 | 0.03 | 63 | 1009.7 |
| 20260507121434 | 56 | 23 | 3.0 | 9.0 | 0.00 | 0.23 | 0.03 | 63 | 1009.7 |
| 20260507120928 | 56 | 29 | 4.0 | 9.0 | 0.00 | 0.23 | 0.03 | 63 | 1009.5 |
| 20260507120428 | 56 | 0 | 3.0 | 11.0 | 0.00 | 0.23 | 0.03 | 64 | 1009.7 |
| 20260507115926 | 56 | 24 | 3.0 | 11.0 | 0.00 | 0.23 | 0.03 | 66 | 1009.7 |
| 20260507115427 | 56 | 294 | 3.0 | 10.0 | 0.00 | 0.23 | 0.03 | 70 | 1009.6 |
| 20260507114927 | 56 | 91 | 5.0 | 12.0 | 0.00 | 0.23 | 0.03 | 71 | 1009.4 |
| 20260507114428 | 56 | 40 | 3.0 | 12.0 | 0.00 | 0.23 | 0.03 | 73 | 1009.3 |
| 20260507113928 | 57 | 23 | 0.0 | 3.0 | 0.00 | 0.23 | 0.03 | 78 | 1009.3 |
| 20260507113424 | 57 | 359 | 0.0 | 3.0 | 0.00 | 0.23 | 0.03 | 79 | 1009.4 |
| 20260507112924 | 56 | 332 | 1.0 | 5.0 | 0.00 | 0.23 | 0.03 | 80 | 1009.5 |
| 20260507112422 | 56 | 83 | 1.0 | 5.0 | 0.00 | 0.23 | 0.03 | 80 | 1009.5 |
| 20260507111922 | 56 | 281 | 1.0 | 5.0 | 0.00 | 0.23 | 0.03 | 81 | 1009.3 |
| 20260507111421 | 56 | 34 | 1.0 | 5.0 | 0.00 | 0.23 | 0.03 | 81 | 1009.3 |
| 20260507110920 | 56 | 86 | 1.0 | 6.0 | 0.00 | 0.23 | 0.03 | 81 | 1009.1 |
| 20260507110413 | 56 | 34 | 1.0 | 6.0 | 0.00 | 0.23 | 0.03 | 82 | 1009.2 |
| 20260507105912 | 56 | 68 | 0.0 | 2.0 | 0.00 | 0.23 | 0.03 | 83 | 1009.3 |
| 20260507105411 | 56 | 8 | 0.0 | 3.0 | 0.00 | 0.23 | 0.03 | 83 | 1009.2 |
| 20260507104910 | 56 | 79 | 1.0 | 4.0 | 0.00 | 0.23 | 0.03 | 83 | 1009.0 |
| 20260507103907 | 56 | 44 | 1.0 | 4.0 | 0.00 | 0.23 | 0.03 | 82 | 1009.0 |
| 20260507103404 | 56 | 94 | 1.0 | 6.0 | 0.00 | 0.23 | 0.03 | 83 | 1009.0 |
| 20260507102902 | 56 | 46 | 2.0 | 6.0 | 0.00 | 0.23 | 0.03 | 83 | 1008.9 |
| 20260507102405 | 56 | 46 | 2.0 | 6.0 | 0.00 | 0.23 | 0.03 | 83 | 1008.9 |
| 20260507101905 | 56 | 41 | 2.0 | 5.0 | 0.00 | 0.23 | 0.03 | 83 | 1008.8 |
| 20260507101404 | 56 | 71 | 2.0 | 7.0 | 0.00 | 0.23 | 0.03 | 83 | 1008.7 |
| 20260507100904 | 56 | 76 | 2.0 | 7.0 | 0.00 | 0.23 | 0.03 | 83 | 1008.8 |
| 20260507095400 | 56 | 91 | 1.0 | 3.0 | 0.00 | 0.23 | 0.03 | 83 | 1008.7 |
| 20260507094359 | 56 | 23 | 1.0 | 4.0 | 0.00 | 0.23 | 0.03 | 83 | 1008.7 |
| 20260507093858 | 56 | 11 | 2.0 | 7.0 | 0.00 | 0.23 | 0.03 | 83 | 1008.7 |
| 20260507092359 | 56 | 88 | 2.0 | 8.0 | 0.00 | 0.23 | 0.03 | 83 | 1008.3 |
| 20260507091900 | 56 | 97 | 1.0 | 6.0 | 0.00 | 0.23 | 0.03 | 83 | 1008.5 |
| 20260507091359 | 56 | 36 | 2.0 | 6.0 | 0.00 | 0.23 | 0.03 | 83 | 1008.6 |
| 20260507090856 | 56 | 19 | 2.0 | 7.0 | 0.00 | 0.23 | 0.03 | 83 | 1008.7 |
| 20260507090358 | 56 | 110 | 2.0 | 7.0 | 0.00 | 0.23 | 0.03 | 83 | 1008.6 |
| 20260507085852 | 56 | 60 | 2.0 | 6.0 | 0.00 | 0.23 | 0.03 | 83 | 1008.6 |
| 20260507085346 | 56 | 86 | 2.0 | 9.0 | 0.00 | 0.23 | 0.03 | 83 | 1008.6 |
| 20260507084841 | 56 | 97 | 3.0 | 9.0 | 0.00 | 0.23 | 0.03 | 83 | 1008.4 |
| 20260507084340 | 56 | 46 | 2.0 | 7.0 | 0.00 | 0.23 | 0.03 | 83 | 1008.3 |
| 20260507083842 | 57 | 27 | 2.0 | 9.0 | 0.00 | 0.23 | 0.03 | 84 | 1008.4 |
| 20260507083341 | 57 | 99 | 3.0 | 9.0 | 0.00 | 0.23 | 0.03 | 84 | 1008.6 |
| 20260507082840 | 57 | 8 | 2.0 | 9.0 | 0.00 | 0.23 | 0.03 | 85 | 1008.5 |
| 20260507082343 | 57 | 20 | 1.0 | 9.0 | 0.00 | 0.23 | 0.03 | 86 | 1008.3 |
| 20260507081842 | 57 | 103 | 1.0 | 3.0 | 0.00 | 0.23 | 0.03 | 86 | 1008.2 |
| 20260507080829 | 57 | 70 | 1.0 | 4.0 | 0.00 | 0.23 | 0.03 | 86 | 1007.9 |
| 20260507080325 | 57 | 38 | 2.0 | 7.0 | 0.00 | 0.23 | 0.03 | 85 | 1007.8 |
| 20260507075327 | 57 | 62 | 3.0 | 8.0 | 0.00 | 0.23 | 0.03 | 85 | 1007.7 |
| 20260507074825 | 57 | 24 | 3.0 | 8.0 | 0.00 | 0.23 | 0.03 | 85 | 1007.7 |
| 20260507074325 | 58 | 43 | 2.0 | 8.0 | 0.00 | 0.23 | 0.03 | 84 | 1007.7 |
| 20260507073827 | 58 | 49 | 2.0 | 8.0 | 0.00 | 0.23 | 0.03 | 83 | 1007.5 |
| 20260507073320 | 58 | 79 | 2.0 | 9.0 | 0.00 | 0.23 | 0.03 | 83 | 1007.5 |
| 20260507072814 | 58 | 336 | 3.0 | 11.0 | 0.00 | 0.23 | 0.03 | 82 | 1007.4 |
| 20260507072314 | 58 | 64 | 3.0 | 11.0 | 0.00 | 0.23 | 0.03 | 84 | 1007.5 |
| 20260507071815 | 58 | 18 | 3.0 | 8.0 | 0.00 | 0.23 | 0.03 | 85 | 1007.5 |
| 20260507071315 | 58 | 70 | 3.0 | 8.0 | 0.00 | 0.23 | 0.03 | 86 | 1007.5 |
| 20260507070816 | 58 | 32 | 2.0 | 8.0 | 0.00 | 0.23 | 0.03 | 86 | 1007.4 |
| 20260507070316 | 58 | 31 | 1.0 | 6.0 | 0.00 | 0.23 | 0.03 | 87 | 1007.5 |
| 20260507065810 | 58 | 53 | 1.0 | 8.0 | 0.01 | 0.23 | 0.03 | 88 | 1007.4 |
| 20260507065310 | 58 | 65 | 2.0 | 8.0 | 0.01 | 0.23 | 0.03 | 88 | 1007.3 |
| 20260507064812 | 58 | 65 | 2.0 | 6.0 | 0.01 | 0.23 | 0.03 | 89 | 1007.5 |
| 20260507064312 | 58 | 333 | 2.0 | 8.0 | 0.01 | 0.23 | 0.03 | 89 | 1007.5 |
| 20260507063810 | 58 | 32 | 2.0 | 8.0 | 0.01 | 0.23 | 0.03 | 89 | 1007.6 |
| 20260507063312 | 58 | 113 | 1.0 | 5.0 | 0.01 | 0.23 | 0.03 | 89 | 1007.5 |
| 20260507062806 | 58 | 340 | 2.0 | 9.0 | 0.01 | 0.23 | 0.03 | 89 | 1007.4 |
| 20260507062308 | 58 | 329 | 2.0 | 9.0 | 0.01 | 0.23 | 0.03 | 89 | 1007.3 |
| 20260507061807 | 58 | 69 | 3.0 | 8.0 | 0.01 | 0.23 | 0.03 | 89 | 1007.2 |
| 20260507060808 | 59 | 12 | 1.0 | 9.0 | 0.01 | 0.23 | 0.03 | 88 | 1007.3 |
| 20260507060310 | 59 | 91 | 1.0 | 5.0 | 0.01 | 0.23 | 0.03 | 88 | 1007.2 |
| 20260507055804 | 59 | 23 | 1.0 | 5.0 | 0.00 | 0.22 | 0.02 | 87 | 1007.5 |
| 20260507055306 | 59 | 71 | 1.0 | 4.0 | 0.00 | 0.22 | 0.02 | 87 | 1007.5 |
| 20260507054817 | 60 | 346 | 2.0 | 10.0 | 0.00 | 0.22 | 0.02 | 86 | 1007.5 |
| 20260507054303 | 60 | 23 | 3.0 | 10.0 | 0.01 | 0.22 | 0.02 | 85 | 1007.3 |
| 20260507053802 | 60 | 32 | 3.0 | 9.0 | 0.01 | 0.22 | 0.02 | 86 | 1007.5 |
| 20260507053304 | 60 | 32 | 2.0 | 9.0 | 0.02 | 0.22 | 0.02 | 86 | 1007.6 |
| 20260507052300 | 60 | 12 | 2.0 | 6.0 | 0.02 | 0.22 | 0.02 | 85 | 1007.1 |
| 20260507051759 | 60 | 91 | 1.0 | 5.0 | 0.02 | 0.22 | 0.02 | 84 | 1006.8 |
| 20260507051258 | 60 | 53 | 1.0 | 5.0 | 0.02 | 0.22 | 0.02 | 84 | 1007.2 |
| 20260507050759 | 61 | 85 | 1.0 | 5.0 | 0.02 | 0.22 | 0.02 | 84 | 1007.5 |
| 20260507050259 | 61 | 27 | 1.0 | 7.0 | 0.02 | 0.22 | 0.02 | 83 | 1007.7 |
| 20260507045754 | 61 | 345 | 1.0 | 7.0 | 0.02 | 0.22 | 0.02 | 82 | 1007.6 |
| 20260507045255 | 61 | 309 | 1.0 | 4.0 | 0.02 | 0.22 | 0.02 | 82 | 1007.5 |
| 20260507044755 | 62 | 311 | 0.0 | 4.0 | 0.02 | 0.22 | 0.02 | 80 | 1007.7 |
| 20260507044255 | 62 | 76 | 1.0 | 6.0 | 0.01 | 0.21 | 0.01 | 79 | 1007.3 |
| 20260507043754 | 62 | 76 | 2.0 | 6.0 | 0.01 | 0.21 | 0.01 | 78 | 1007.5 |
| 20260507042750 | 63 | 300 | 2.0 | 7.0 | 0.00 | 0.20 | 0.00 | 75 | 1007.7 |
| 20260507042251 | 63 | 24 | 3.0 | 10.0 | 0.00 | 0.20 | 0.00 | 74 | 1007.5 |
| 20260507041752 | 63 | 43 | 2.0 | 10.0 | 0.00 | 0.20 | 0.00 | 77 | 1007.5 |
| 20260507041252 | 63 | 37 | 1.0 | 5.0 | 0.00 | 0.20 | 0.00 | 81 | 1007.6 |
| 20260507040750 | 63 | 65 | 1.0 | 5.0 | 0.00 | 0.20 | 0.00 | 81 | 1007.3 |
| 20260507040252 | 63 | 324 | 1.0 | 6.0 | 0.00 | 0.20 | 0.00 | 81 | 1007.3 |
| 20260507035745 | 64 | 24 | 2.0 | 6.0 | 0.00 | 0.20 | 0.20 | 81 | 1007.1 |
| 20260507035247 | 64 | 348 | 3.0 | 7.0 | 0.00 | 0.20 | 0.20 | 80 | 1006.9 |